Location: Ferris
(32.5340°N, 96.6656°W)
Time: 23:12:10
(UTC+00:00)

Cosmos 1354 Rocket - Pass Details

Date: 25 May 2026
Orbit: 761 x 778 km, 74.0° (Epoch: 7 June)

Event Time Altitude Azimuth Distance (km) Brightness Sun altitude
Rises 02:37:35 0° 352° (N) 3,228 7.9 -14.0°
Reaches altitude 10° 02:40:07 10° 0° (N) 2,297 7.0 -14.5°
Maximum altitude 02:44:58 38° 69° (ENE) 1,140 4.6 -15.3°
Enters shadow 02:47:22 25° 119° (ESE) 1,507 4.9 -15.7°
